Weather History for Ozona, TX

Change the Weather History Date:

Monday, November 4, 2013

  Actual Average Record
Temperature  
Mean Temperature 61 °F -  
Max Temperature 69 °F 69 °F 75 °F (2012)
Min Temperature 53 °F 40 °F 33 °F (2011)
Degree Days  
Heating Degree Days 4    
Growing Degree Days 11 (Base 50)    
Moisture  
Dew Point 50 °F    
Average Humidity 71    
Maximum Humidity 88    
Minimum Humidity 52    
Precipitation  
Precipitation 0.00 in - - ()
Sea Level Pressure  
Sea Level Pressure 30.00 in    
Wind  
Wind Speed 12 mph (South)    
Max Wind Speed 20 mph    
Max Gust Speed 26 mph    
Visibility 10 miles    
Events      
Averages and records for this station are not official NWS values.
T = Trace of Precipitation, MM = Missing Value Source: NWS Daily Summary

Daily Weather History Graph

Daily Weather History Graph

Search for Another Location

Airport:

Trip Planner

Search our weather history database for the weather conditions in past years. The results will help you decide how hot, cold, wet, or windy it might be!

Date:

Astronomy

Nov. 04, 2013 Rise Set
Actual Time 7:02 AM CST 5:54 PM CST
Civil Twilight 6:37 AM CST 6:19 PM CST
Nautical Twilight 6:08 AM CST 6:47 PM CST
Astronomical Twilight 5:40 AM CST 7:16 PM CST
Moon 8:10 AM CST (11/4) 7:05 PM CST (11/4)
Length of Visible Light 11h 41m
Length of Day
10h 51m
New Moon, 2% of the Moon is Illuminated
Nov 4
New Moon
Nov 9
First Quarter
Nov 17
Full
Nov 25
Last Quarter
Dec 2
New

Hourly Weather History & Observations

Time (CST) Temp. Dew Point Humidity Pressure Visibility Wind Dir Wind Speed Gust Speed Precip Events Conditions
12:15 AM 55.4 °F 44.6 °F 67% 30.00 in 10.0 mi South 15.0 mph 19.6 mph N/A   Clear
12:35 AM 55.4 °F 44.6 °F 67% 29.99 in 10.0 mi SSW 11.5 mph 17.3 mph N/A   Clear
12:55 AM 55.4 °F 44.6 °F 67% 30.02 in 10.0 mi SSW 17.3 mph 23.0 mph N/A   Clear
1:15 AM 55.4 °F 44.6 °F 67% 30.02 in 10.0 mi SW 11.5 mph 19.6 mph N/A   Clear
1:35 AM 53.6 °F 44.6 °F 72% 30.00 in 10.0 mi SSW 9.2 mph 17.3 mph N/A   Clear
1:55 AM 53.6 °F 46.4 °F 77% 29.97 in 10.0 mi South 9.2 mph - N/A   Clear
2:15 AM 53.6 °F 46.4 °F 77% 29.99 in 10.0 mi SW 9.2 mph - N/A   Clear
2:35 AM 53.6 °F 44.6 °F 72% 30.00 in 10.0 mi SSW 10.4 mph - N/A   Clear
2:55 AM 53.6 °F 44.6 °F 72% 29.98 in 10.0 mi South 8.1 mph - N/A   Clear
3:15 AM 55.4 °F 44.6 °F 67% 30.01 in 10.0 mi SW 9.2 mph - N/A   Clear
3:35 AM 53.6 °F 44.6 °F 72% 29.97 in 10.0 mi South 8.1 mph - N/A   Clear
3:55 AM 53.6 °F 44.6 °F 72% 29.97 in 10.0 mi South 6.9 mph - N/A   Clear
4:15 AM 53.6 °F 46.4 °F 77% 29.95 in 10.0 mi South 11.5 mph - N/A   Clear
4:35 AM 53.6 °F 46.4 °F 77% 29.97 in 10.0 mi South 12.7 mph 19.6 mph N/A   Clear
4:55 AM 53.6 °F 46.4 °F 77% 29.98 in 10.0 mi South 8.1 mph - N/A   Clear
5:15 AM 53.6 °F 46.4 °F 77% 29.98 in 10.0 mi South 11.5 mph 16.1 mph N/A   Clear
5:35 AM 53.6 °F 46.4 °F 77% 29.99 in 10.0 mi South 13.8 mph 18.4 mph N/A   Clear
5:55 AM 53.6 °F 46.4 °F 77% 29.98 in 10.0 mi SSW 6.9 mph - N/A   Clear
6:15 AM 53.6 °F 46.4 °F 77% 29.99 in 10.0 mi South 6.9 mph - N/A   Clear
6:35 AM 53.6 °F 46.4 °F 77% 30.00 in 10.0 mi South 10.4 mph - N/A   Clear
6:55 AM 53.6 °F 46.4 °F 77% 30.00 in 10.0 mi South 8.1 mph - N/A   Clear
7:15 AM 53.6 °F 46.4 °F 77% 30.00 in 10.0 mi South 8.1 mph - N/A   Clear
7:35 AM 53.6 °F 46.4 °F 77% 30.02 in 10.0 mi SW 5.8 mph - N/A   Clear
7:55 AM 53.6 °F 48.2 °F 82% 30.02 in 10.0 mi South 6.9 mph - N/A   Clear
8:15 AM 53.6 °F 48.2 °F 82% 30.02 in 10.0 mi South 9.2 mph - N/A   Clear
8:35 AM 53.6 °F 48.2 °F 82% 30.03 in 10.0 mi South 8.1 mph - N/A   Mostly Cloudy
8:55 AM 55.4 °F 50.0 °F 82% 30.03 in 10.0 mi South 9.2 mph - N/A   Scattered Clouds
9:15 AM 55.4 °F 50.0 °F 82% 30.04 in 10.0 mi SSW 10.4 mph - N/A   Clear
9:35 AM 55.4 °F 50.0 °F 82% 30.04 in 10.0 mi South 15.0 mph - N/A   Clear
9:55 AM 57.2 °F 50.0 °F 77% 30.05 in 10.0 mi SSW 13.8 mph - N/A   Clear
10:15 AM 57.2 °F 50.0 °F 77% 30.05 in 10.0 mi South 19.6 mph 25.3 mph N/A   Clear
10:35 AM 59.0 °F 51.8 °F 77% 30.05 in 10.0 mi South 18.4 mph 21.9 mph N/A   Scattered Clouds
10:55 AM 59.0 °F 50.0 °F 72% 30.05 in 10.0 mi South 13.8 mph 21.9 mph N/A   Scattered Clouds
11:15 AM 59.0 °F 51.8 °F 77% 30.05 in 10.0 mi South 15.0 mph - N/A   Mostly Cloudy
11:35 AM 62.6 °F 51.8 °F 68% 30.04 in 10.0 mi South 13.8 mph - N/A   Scattered Clouds
11:55 AM 62.6 °F 51.8 °F 68% 30.04 in 10.0 mi SSW 15.0 mph - N/A   Scattered Clouds
12:15 PM 62.6 °F 51.8 °F 68% 30.02 in 10.0 mi South 12.7 mph - N/A   Scattered Clouds
12:35 PM 64.4 °F 51.8 °F 64% 30.02 in 10.0 mi SSW 12.7 mph 26.5 mph N/A   Clear
12:55 PM 64.4 °F 51.8 °F 64% 30.00 in 10.0 mi SSW 13.8 mph - N/A   Clear
1:15 PM 64.4 °F 51.8 °F 64% 30.00 in 10.0 mi South 13.8 mph 19.6 mph N/A   Clear
1:35 PM 64.4 °F 51.8 °F 64% 29.99 in 10.0 mi South 19.6 mph 24.2 mph N/A   Clear
1:55 PM 64.4 °F 51.8 °F 64% 29.98 in 10.0 mi South 15.0 mph 18.4 mph N/A   Clear
2:15 PM 66.2 °F 51.8 °F 60% 29.97 in 10.0 mi South 16.1 mph 20.7 mph N/A   Clear
2:35 PM 68.0 °F 51.8 °F 56% 29.96 in 10.0 mi South 18.4 mph 23.0 mph N/A   Clear
2:55 PM 68.0 °F 51.8 °F 56% 29.95 in 10.0 mi SSE 16.1 mph - N/A   Clear
3:15 PM 68.0 °F 51.8 °F 56% 29.95 in 10.0 mi SSE 12.7 mph 21.9 mph N/A   Clear
3:35 PM 69.8 °F 51.8 °F 53% 29.95 in 10.0 mi South 13.8 mph 24.2 mph N/A   Clear
3:55 PM 68.0 °F 51.8 °F 56% 29.95 in 10.0 mi SSE 12.7 mph - N/A   Scattered Clouds
4:15 PM 68.0 °F 50.0 °F 52% 29.95 in 10.0 mi South 15.0 mph 21.9 mph N/A   Scattered Clouds
4:35 PM 66.2 °F 50.0 °F 56% 29.95 in 10.0 mi South 17.3 mph 23.0 mph N/A   Clear
4:55 PM 66.2 °F 50.0 °F 56% 29.95 in 10.0 mi South 16.1 mph 21.9 mph N/A   Clear
5:15 PM 64.4 °F 50.0 °F 59% 29.95 in 10.0 mi South 11.5 mph 17.3 mph N/A   Clear
5:35 PM 64.4 °F 50.0 °F 59% 29.95 in 10.0 mi SSE 11.5 mph 18.4 mph N/A   Scattered Clouds
5:55 PM 64.4 °F 50.0 °F 59% 29.96 in 10.0 mi SSE 11.5 mph - N/A   Mostly Cloudy
6:15 PM 64.4 °F 50.0 °F 59% 29.97 in 10.0 mi SSE 6.9 mph - N/A   Mostly Cloudy
6:35 PM 64.4 °F 50.0 °F 59% 29.98 in 10.0 mi SSE 11.5 mph 17.3 mph N/A   Mostly Cloudy
6:55 PM 62.6 °F 50.0 °F 63% 29.99 in 10.0 mi South 16.1 mph 21.9 mph N/A   Scattered Clouds
7:15 PM 62.6 °F 50.0 °F 63% 30.00 in 10.0 mi South 15.0 mph - N/A   Mostly Cloudy
7:35 PM 62.6 °F 51.8 °F 68% 30.00 in 10.0 mi SSE 11.5 mph 18.4 mph N/A   Mostly Cloudy
7:55 PM 60.8 °F 51.8 °F 72% 30.01 in 10.0 mi South 9.2 mph - N/A   Mostly Cloudy
8:15 PM 60.8 °F 51.8 °F 72% 30.02 in 10.0 mi SSE 10.4 mph - N/A   Scattered Clouds
8:35 PM 60.8 °F 53.6 °F 77% 30.01 in 10.0 mi SSE 11.5 mph 16.1 mph N/A   Clear
8:55 PM 60.8 °F 53.6 °F 77% 30.01 in 10.0 mi SE 9.2 mph - N/A   Scattered Clouds
9:15 PM 59.0 °F 53.6 °F 82% 30.02 in 10.0 mi SE 8.1 mph - N/A   Scattered Clouds
9:35 PM 59.0 °F 53.6 °F 82% 30.02 in 10.0 mi SSE 8.1 mph - N/A   Clear
9:55 PM 59.0 °F 53.6 °F 82% 30.02 in 10.0 mi SSE 9.2 mph - N/A   Scattered Clouds
10:15 PM 59.0 °F 53.6 °F 82% 30.02 in 10.0 mi SSE 9.2 mph - N/A   Scattered Clouds
10:35 PM 59.0 °F 53.6 °F 82% 30.02 in 10.0 mi SSE 6.9 mph - N/A   Scattered Clouds
10:55 PM 59.0 °F 53.6 °F 82% 30.02 in 10.0 mi SSE 8.1 mph - N/A   Scattered Clouds
11:15 PM 59.0 °F 53.6 °F 82% 30.01 in 10.0 mi SSE 5.8 mph - N/A   Mostly Cloudy
11:35 PM 59.0 °F 53.6 °F 82% 30.00 in 10.0 mi SSE 5.8 mph - N/A   Overcast
11:55 PM 57.2 °F 53.6 °F 88% 30.00 in 10.0 mi SSE 4.6 mph - N/A   Mostly Cloudy